Tracking 19909 objects as of 22-Oct-2019
HD Live streaming from Space Station
objects crossing your sky now

RAINCUBE

Track RAINCUBE now!
10-day predictions


NORAD ID: 43548
Int'l Code: 1998-067NW
Perigee: 379.2 km
Apogee: 385.9 km
Inclination: 51.6 °
Period: 92.1 minutes
Semi major axis: 6753 km
RCS: Unknown
Launch date: November 20, 1998
Source: United States (US)
Launch site: TYURATAM MISSILE AND SPACE COMPLEX (TTMTR)
aabbcc
Your satellite tracking list
Your tracking list is empty




NASA's NSSDC Master Catalog

Two Line Element Set (TLE):
1 43548U 98067NW  19294.94501081  .00015742  00000-0  16715-3 0  9999
2 43548  51.6360  70.2820 0005021 249.2854 110.7603 15.64246793 72664
Source of the keplerian elements: AFSPC